Location: Unspecified
(0.0000°N, 0.0000°E)
Time: 17:49:29
(UTC+00:00)

STARLINK 1042 - Pass Details

Date: 20 January 2020
Orbit: 548 x 551 km, 53.0° (Epoch: 17 January)

Event Time Altitude Azimuth Distance (km) Brightness Sun altitude
Rises 18:34:19 0° 288° (WNW) 2,703 8.1 -5.5°
Reaches altitude 10° 18:38:04 10° 253° (WSW) 1,815 8.1 -6.4°
Maximum altitude 18:39:21 11° 235° (SW) 1,737 7.7 -6.7°
Drops below altitude 10° 18:40:39 10° 216° (SW) 1,817 7.3 -7.0°
Sets 18:44:26 0° 181° (S) 2,714 7.5 -7.9°
